Knoxville, TN

1:23 AM EDT on August 26, 2019 (GMT -0400)
McGhee Tyson

Weather History for KTYS - November, 2016

Change the Weather History Date:

Friday, November 18, 2016

  Actual Average Record
Temperature  
Mean Temperature 59 °F 49 °F  
Max Temperature 78 °F 59 °F 80 °F (1985)
Min Temperature 39 °F 38 °F 18 °F (1891)
Degree Days  
Heating Degree Days 6 16  
Month to date heating degree days 160 241  
Since 1 July heating degree days 212 460  
Cooling Degree Days 0 0  
Month to date cooling degree days 14 0  
Year to date cooling degree days 2121 1523  
Growing Degree Days 10 (Base 50)    
Moisture  
Dew Point 39 °F    
Average Humidity 56    
Maximum Humidity 89    
Minimum Humidity 22    
Precipitation  
Precipitation 0.00 in 0.14 in 2.02 in (1906)
Month to date precipitation T 2.21  
Year to date precipitation 32.42 41.56  
Snow  
Snow 0.00 in 0.00 in - ()
Month to date snowfall 0.0 0.0  
Since 1 July snowfall 0.0 0.0  
Since 1 September snowfall 0.0 0.0  
Snow Depth 0.00 in    
Sea Level Pressure  
Sea Level Pressure 30.13 in    
Wind  
Wind Speed 3 mph (WSW)    
Max Wind Speed 15 mph    
Max Gust Speed 18 mph    
Visibility 6 miles    
Events      
T = Trace of Precipitation, MM = Missing Value Source: NWS Daily Summary

Daily Weather History Graph

Daily Weather History Graph

Search for Another Location

Airport or City:

Astronomy

Nov. 18, 2016 Rise Set
Actual Time 7:15 AM EST 5:26 PM EST
Civil Twilight 6:48 AM EST 5:54 PM EST
Nautical Twilight 6:17 AM EST 6:25 PM EST
Astronomical Twilight 5:46 AM EST 6:55 PM EST
Moon 9:55 PM EST (11/18) 11:15 AM EST (11/18)
Length of Visible Light 11h 05m
Length of Day
10h 11m
Waning Gibbous, 77% of the Moon is Illuminated
Nov 18
Waning Gibbous
Nov 21
Last Quarter
Nov 29
New
Dec 7
First Quarter
Dec 13
Full

Hourly Weather History & Observations

Time (EST) Temp. Windchill Dew Point Humidity Pressure Visibility Wind Dir Wind Speed Gust Speed Precip Events Conditions
12:53 AM 48.2 °F - 39.2 °F 71% 30.12 in 6.0 mi Calm Calm - N/A   Haze
1:53 AM 48.2 °F - 41.0 °F 76% 30.13 in 6.0 mi Calm Calm - N/A   Haze
2:53 AM 44.1 °F 41.5 °F 39.0 °F 82% 30.13 in 6.0 mi NNE 4.6 mph - N/A   Haze
3:05 AM 44.6 °F 43.1 °F 39.2 °F 81% 30.14 in 4.0 mi NNE 3.5 mph - N/A   Haze
3:53 AM 44.6 °F - 39.2 °F 81% 30.14 in 4.0 mi Calm Calm - N/A   Haze
4:50 AM 42.8 °F - 39.2 °F 87% 30.16 in 4.0 mi Calm Calm - N/A   Haze
4:53 AM 42.8 °F - 39.2 °F 87% 30.16 in 4.0 mi Calm Calm - N/A   Haze
5:53 AM 42.8 °F - 39.2 °F 87% 30.18 in 4.0 mi Calm Calm - N/A   Haze
6:53 AM 42.8 °F - 37.4 °F 81% 30.20 in 4.0 mi Calm Calm - N/A   Scattered Clouds
7:53 AM 42.8 °F - 37.4 °F 81% 30.22 in 3.0 mi Calm Calm - N/A   Scattered Clouds
8:53 AM 50.0 °F - 42.8 °F 76% 30.23 in 3.0 mi Calm Calm - N/A   Scattered Clouds
9:44 AM 53.6 °F - 42.8 °F 67% 30.24 in 2.5 mi Calm Calm - N/A   Scattered Clouds
9:53 AM 55.4 °F - 42.8 °F 63% 30.24 in 2.5 mi Calm Calm - N/A   Scattered Clouds
10:53 AM 60.8 °F - 42.8 °F 52% 30.23 in 2.5 mi Calm Calm - N/A   Scattered Clouds
11:53 AM 68.0 °F - 42.8 °F 40% 30.19 in 2.0 mi Calm Calm - N/A   Scattered Clouds
12:53 PM 71.6 °F - 41.0 °F 33% 30.15 in 2.0 mi Calm Calm - N/A   Scattered Clouds
1:44 PM 75.2 °F - 39.2 °F 27% 30.13 in 3.0 mi Variable 6.9 mph - N/A   Haze
1:53 PM 75.2 °F - 39.2 °F 27% 30.11 in 3.0 mi West 5.8 mph - N/A   Haze
2:53 PM 77.0 °F - 37.4 °F 24% 30.08 in 5.0 mi SW 11.5 mph - N/A   Haze
3:53 PM 77.0 °F - 35.6 °F 22% 30.06 in 7.0 mi WSW 9.2 mph - N/A   Partly Cloudy
4:53 PM 73.4 °F - 35.6 °F 25% 30.07 in 10.0 mi West 9.2 mph - N/A   Partly Cloudy
5:53 PM 68.0 °F - 37.4 °F 33% 30.09 in 10.0 mi WSW 5.8 mph - N/A   Partly Cloudy
6:53 PM 64.4 °F - 37.4 °F 37% 30.09 in 10.0 mi South 4.6 mph - N/A   Partly Cloudy
7:53 PM 62.6 °F - 37.4 °F 39% 30.07 in 10.0 mi Calm Calm - N/A   Partly Cloudy
8:53 PM 60.8 °F - 37.4 °F 42% 30.05 in 10.0 mi Calm Calm - N/A   Partly Cloudy
9:53 PM 57.2 °F - 37.4 °F 48% 30.06 in 10.0 mi SW 8.1 mph - N/A   Partly Cloudy
10:53 PM 59.0 °F - 37.4 °F 45% 30.07 in 10.0 mi SW 10.4 mph - N/A   Partly Cloudy
11:53 PM 57.2 °F - 37.4 °F 48% 30.05 in 10.0 mi South 3.5 mph - N/A   Partly Cloudy